EW7659 Weather Reports


Display with metric or nautical units.
time (UTC)temp
F
wind
direction
speed
MPH
gust
MPH
rain 1hr
in
rain 24hr
in
rain mn
in
humidity
%
barometer
mb
20260831084640 79 167 0.0 0.0 0.00 0.00 0.00 59 1008.6
20260831084138 79 167 0.0 0.0 0.00 0.00 0.00 59 1008.6
20260831083637 79 167 0.0 0.0 0.00 0.00 0.00 58 1008.6
20260831083137 79 167 0.0 0.0 0.00 0.00 0.00 58 1008.6
20260831082638 79 167 0.0 0.0 0.00 0.00 0.00 58 1008.5
20260831082138 79 167 0.0 0.0 0.00 0.00 0.00 58 1008.5
20260831081637 80 167 0.0 3.0 0.00 0.00 0.00 57 1008.4
20260831081138 80 167 0.0 3.0 0.00 0.00 0.00 57 1008.3
20260831080907 80 167 0.0 1.0 0.00 0.00 0.00 57 1008.3
20260831080133 80 167 0.0 1.0 0.00 0.00 0.00 57 1008.3
20260831075634 80 167 0.0 0.0 0.00 0.00 0.00 57 1008.2
20260831075134 80 167 0.0 0.0 0.00 0.00 0.00 57 1008.3
20260831074633 80 167 0.0 0.0 0.00 0.00 0.00 57 1008.2
20260831074133 80 167 0.0 0.0 0.00 0.00 0.00 57 1008.3
20260831073634 80 167 0.0 0.0 0.00 0.00 0.00 56 1008.4
20260831073133 80 167 0.0 0.0 0.00 0.00 0.00 56 1008.3
20260831072634 80 167 0.0 0.0 0.00 0.00 0.00 56 1008.2
20260831072354 80 167 0.0 0.0 0.00 0.00 0.00 55 1008.2
20260831071634 81 167 0.0 1.0 0.00 0.00 0.00 55 1008.3
20260831071134 81 167 0.0 1.0 0.00 0.00 0.00 55 1008.3
20260831070634 81 167 0.0 0.0 0.00 0.00 0.00 54 1008.2
20260831070134 81 167 0.0 0.0 0.00 0.00 0.00 54 1008.2
20260831065632 82 166 0.0 0.0 0.00 0.00 0.00 54 1008.3
20260831065134 82 167 0.0 1.0 0.00 0.00 0.00 53 1008.3
20260831064633 82 166 0.0 1.0 0.00 0.00 0.00 53 1008.3
20260831064133 82 166 0.0 1.0 0.00 0.00 0.00 53 1008.3
20260831063634 82 167 0.0 5.0 0.00 0.00 0.00 52 1008.3
20260831063131 82 167 0.0 5.0 0.00 0.00 0.00 52 1008.3
20260831062625 82 178 0.0 7.0 0.00 0.00 0.00 52 1008.2
20260831062119 82 179 0.0 7.0 0.00 0.00 0.00 52 1008.2
20260831061613 83 173 0.0 1.0 0.00 0.00 0.00 51 1008.2
20260831061105 83 171 0.0 1.0 0.00 0.00 0.00 51 1008.2
20260831060605 83 172 0.0 1.0 0.00 0.00 0.00 51 1008.1
20260831060105 83 177 0.0 0.0 0.00 0.00 0.00 51 1008.1
20260831055605 83 178 0.0 7.0 0.00 0.00 0.00 51 1008.1
20260831055104 83 178 0.0 7.0 0.00 0.00 0.00 50 1008.0
20260831054602 83 166 0.0 5.0 0.00 0.00 0.00 50 1008.0
20260831054059 83 171 0.0 5.0 0.00 0.00 0.00 50 1007.9
20260831053821 82 169 0.0 1.0 0.00 0.00 0.00 50 1007.9
20260831053056 82 165 0.0 1.0 0.00 0.00 0.00 50 1007.9
20260831052553 82 167 0.0 0.0 0.00 0.00 0.00 51 1007.9
20260831052052 82 178 0.0 1.0 0.00 0.00 0.00 51 1007.9
20260831051550 82 183 0.0 1.0 0.00 0.00 0.00 51 1008.0
20260831051047 82 162 0.0 0.0 0.00 0.00 0.00 51 1008.0
20260831050545 83 162 0.0 0.0 0.00 0.00 0.00 50 1007.8
20260831050043 83 162 0.0 0.0 0.00 0.00 0.00 50 1007.7
20260831045541 83 162 0.0 4.0 0.00 0.00 0.00 50 1007.7
20260831045039 83 162 0.0 4.0 0.00 0.00 0.00 50 1007.7
20260831044536 83 162 0.0 1.0 0.00 0.00 0.00 49 1007.7
20260831044035 83 162 0.0 1.0 0.00 0.00 0.00 49 1007.7
20260831043800 84 162 0.0 0.0 0.00 0.00 0.00 49 1007.6
20260831043033 84 162 0.0 0.0 0.00 0.00 0.00 49 1007.5
20260831042533 84 162 0.0 0.0 0.00 0.00 0.00 48 1007.6
20260831042034 84 162 0.0 0.0 0.00 0.00 0.00 48 1007.5
20260831041529 84 162 0.0 0.0 0.00 0.00 0.00 48 1007.6
20260831041022 84 162 0.0 0.0 0.00 0.00 0.00 48 1007.5
20260831040517 84 162 0.0 0.0 0.00 0.00 0.00 48 1007.6
20260831040012 85 162 0.0 0.0 0.00 0.00 0.00 48 1007.5
20260831035511 85 162 0.0 0.0 0.00 0.00 0.00 47 1007.6
20260831035009 85 162 0.0 0.0 0.00 0.00 0.00 47 1007.6
20260831034509 85 162 0.0 0.0 0.00 0.00 0.00 47 1007.5
20260831034009 85 162 0.0 0.0 0.00 0.00 0.00 47 1007.5
20260831033728 86 162 0.0 0.0 0.00 0.00 0.00 46 1007.4
20260831033007 86 162 0.0 0.0 0.00 0.00 0.00 46 1007.4
20260831032507 86 161 0.0 0.0 0.00 0.00 0.00 45 1007.4
20260831032009 87 161 0.0 0.0 0.00 0.00 0.00 45 1007.4
20260831031724 87 161 0.0 0.0 0.00 0.00 0.00 44 1007.4
20260831031007 87 161 0.0 0.0 0.00 0.00 0.00 44 1007.3
20260831030507 87 161 0.0 0.0 0.00 0.00 0.00 44 1007.3
20260831030007 88 161 0.0 0.0 0.00 0.00 0.00 44 1007.3
20260831025505 88 161 0.0 0.0 0.00 0.00 0.00 43 1007.2
20260831025457 88 161 0.0 0.0 0.00 0.00 0.00 43 1007.2
20260831024505 88 161 0.0 0.0 0.00 0.00 0.00 43 1007.0
20260831024006 88 160 0.0 0.0 0.00 0.00 0.00 43 1006.9
20260831023510 89 161 0.0 0.0 0.00 0.00 0.00 43 1006.9
20260831023228 89 160 0.0 1.0 0.00 0.00 0.00 42 1006.8
20260831022505 89 159 0.0 4.0 0.00 0.00 0.00 42 1006.8
20260831022004 89 160 0.0 4.0 0.00 0.00 0.00 42 1006.7
20260831021505 90 160 0.0 4.0 0.00 0.00 0.00 41 1006.7
20260831021005 90 160 0.0 4.0 0.00 0.00 0.00 41 1006.7
20260831020504 90 160 0.0 0.0 0.00 0.00 0.00 41 1006.6
20260831020005 90 159 0.0 1.0 0.00 0.00 0.00 40 1006.5
20260831015505 91 159 0.0 2.0 0.00 0.00 0.00 40 1006.4
20260831015227 91 159 0.0 2.0 0.00 0.00 0.00 40 1006.5
20260831014508 91 158 0.0 0.0 0.00 0.00 0.00 39 1006.3
20260831014004 91 158 0.0 0.0 0.00 0.00 0.00 39 1006.3
20260831013506 92 158 0.0 0.0 0.00 0.00 0.00 39 1006.3
20260831013229 92 158 0.0 0.0 0.00 0.00 0.00 38 1006.2
20260831012505 92 158 0.0 0.0 0.00 0.00 0.00 38 1006.2
20260831012005 93 158 0.0 0.0 0.00 0.00 0.00 38 1006.0
20260831011505 93 161 0.0 0.0 0.00 0.00 0.00 37 1006.0
20260831011007 93 161 0.0 0.0 0.00 0.00 0.00 37 1006.0
20260831010505 94 161 0.0 6.0 0.00 0.00 0.00 37 1006.0
20260831010010 94 161 0.0 6.0 0.00 0.00 0.00 36 1006.0
20260831005509 94 167 0.0 1.0 0.00 0.00 0.00 36 1005.9
20260831005007 95 176 0.0 1.0 0.00 0.00 0.00 35 1005.9
20260831004505 95 162 0.0 1.0 0.00 0.00 0.00 35 1005.9
20260831004003 96 172 0.0 0.0 0.00 0.00 0.00 35 1005.9
20260831003501 96 167 0.0 0.0 0.00 0.00 0.00 34 1005.9
20260831003001 96 196 0.0 0.0 0.00 0.00 0.00 34 1005.9
20260831002459 97 165 0.0 0.0 0.00 0.00 0.00 33 1005.9
20260831001959 97 180 0.0 1.0 0.00 0.00 0.00 33 1005.8
20260831001501 97 173 0.0 1.0 0.00 0.00 0.00 33 1005.9
20260831000959 98 183 0.0 1.0 0.00 0.00 0.00 32 1005.8
20260831000457 98 148 0.0 7.0 0.00 0.00 0.00 32 1005.9
20260830235957 98 173 1.0 10.0 0.00 0.00 0.00 32 1005.9
20260830235458 98 161 1.0 10.0 0.00 0.00 0.00 32 1006.0
20260830235224 99 169 1.0 9.0 0.00 0.00 0.00 32 1006.0
20260830234456 99 189 1.0 8.0 0.00 0.00 0.00 31 1005.9
20260830233957 99 159 1.0 9.0 0.00 0.00 0.00 31 1005.9
20260830233457 99 169 1.0 9.0 0.00 0.00 0.00 31 1005.9
20260830232956 99 169 1.0 10.0 0.00 0.00 0.00 30 1005.9
20260830232942 100 175 1.0 10.0 0.00 0.00 0.00 30 1005.9
20260830231953 100 167 1.0 11.0 0.00 0.00 0.00 30 1005.9
20260830231711 100 175 1.0 11.0 0.00 0.00 0.00 30 1005.9
20260830230953 100 185 1.0 10.0 0.00 0.00 0.00 30 1005.9
20260830230453 100 171 0.0 9.0 0.00 0.00 0.00 30 1005.8
20260830225953 100 138 1.0 12.0 0.00 0.00 0.00 29 1005.8
20260830225453 100 175 1.0 12.0 0.00 0.00 0.00 29 1005.8
20260830224955 100 180 0.0 12.0 0.00 0.00 0.00 29 1005.9
20260830224453 100 161 1.0 12.0 0.00 0.00 0.00 29 1005.8
20260830223954 101 183 1.0 14.0 0.00 0.00 0.00 29 1005.8
20260830223452 101 200 1.0 14.0 0.00 0.00 0.00 29 1005.8
20260830222953 101 179 0.0 11.0 0.00 0.00 0.00 29 1005.8
20260830222452 101 178 1.0 9.0 0.00 0.00 0.00 30 1005.9
20260830221953 101 142 1.0 9.0 0.00 0.00 0.00 29 1005.8
20260830221452 101 153 1.0 15.0 0.00 0.00 0.00 29 1005.9
20260830221215 101 161 1.0 15.0 0.00 0.00 0.00 28 1005.8
20260830220946 101 173 1.0 13.0 0.00 0.00 0.00 28 1005.9
20260830215953 101 140 1.0 13.0 0.00 0.00 0.00 28 1005.9
20260830215453 101 165 1.0 15.0 0.00 0.00 0.00 29 1005.9
20260830214952 101 175 1.0 15.0 0.00 0.00 0.00 30 1006.0
20260830214941 101 205 1.0 14.0 0.00 0.00 0.00 30 1005.9
20260830214212 101 175 2.0 17.0 0.00 0.00 0.00 30 1006.0
20260830213453 101 184 1.0 17.0 0.00 0.00 0.00 29 1006.1
20260830212951 102 169 0.0 8.0 0.00 0.00 0.00 28 1006.1
20260830212449 102 159 1.0 8.0 0.00 0.00 0.00 29 1006.1
20260830211947 102 194 1.0 13.0 0.00 0.00 0.00 29 1006.0
20260830211447 102 150 1.0 13.0 0.00 0.00 0.00 29 1006.0
20260830210946 102 185 1.0 10.0 0.00 0.00 0.00 28 1006.2
20260830210447 102 165 1.0 12.0 0.00 0.00 0.00 29 1006.3
20260830210210 102 185 1.0 12.0 0.00 0.00 0.00 29 1006.3
20260830205445 102 173 1.0 14.0 0.00 0.00 0.00 29 1006.5
20260830205202 102 156 2.0 14.0 0.00 0.00 0.00 30 1006.6
20260830204438 102 180 2.0 16.0 0.00 0.00 0.00 29 1006.7
20260830204205 102 175 1.0 16.0 0.00 0.00 0.00 29 1006.6
20260830203439 102 171 1.0 11.0 0.00 0.00 0.00 29 1006.7
20260830202934 102 164 1.0 16.0 0.00 0.00 0.00 30 1006.7
20260830202433 101 164 1.0 16.0 0.00 0.00 0.00 29 1006.9
20260830201933 101 176 1.0 14.0 0.00 0.00 0.00 29 1006.8
20260830201433 101 181 1.0 14.0 0.00 0.00 0.00 30 1006.9
20260830201414 101 144 1.0 14.0 0.00 0.00 0.00 30 1007.0
20260830200656 101 161 1.0 12.0 0.00 0.00 0.00 31 1007.0
20260830195934 101 132 1.0 7.0 0.00 0.00 0.00 31 1007.0
20260830195433 101 238 1.0 9.0 0.00 0.00 0.00 33 1007.0
20260830194933 101 192 1.0 11.0 0.00 0.00 0.00 31 1007.3
20260830194433 101 147 1.0 11.0 0.00 0.00 0.00 32 1007.4
20260830194151 101 166 1.0 7.0 0.00 0.00 0.00 32 1007.4
20260830193433 101 182 1.0 10.0 0.00 0.00 0.00 32 1007.5
20260830192932 101 153 2.0 11.0 0.00 0.00 0.00 32 1007.6
20260830192433 101 172 2.0 12.0 0.00 0.00 0.00 32 1007.6
20260830191933 101 189 1.0 12.0 0.00 0.00 0.00 33 1007.6
20260830191650 101 185 2.0 14.0 0.00 0.00 0.00 33 1007.7
20260830190931 100 198 3.0 14.0 0.00 0.00 0.00 34 1007.7
20260830190426 100 169 2.0 13.0 0.00 0.00 0.00 34 1007.7
20260830185920 100 197 1.0 12.0 0.00 0.00 0.00 34 1007.7
20260830185414 100 156 3.0 25.0 0.00 0.00 0.00 34 1007.8
20260830184908 100 161 2.0 25.0 0.00 0.00 0.00 33 1007.8
20260830184406 100 184 1.0 14.0 0.00 0.00 0.00 34 1007.8
20260830183907 99 167 1.0 9.0 0.00 0.00 0.00 35 1007.8
20260830183406 99 178 2.0 13.0 0.00 0.00 0.00 35 1007.9
20260830182906 99 181 2.0 13.0 0.00 0.00 0.00 35 1007.8
20260830182407 99 115 1.0 11.0 0.00 0.00 0.00 36 1007.9
20260830181907 98 217 1.0 10.0 0.00 0.00 0.00 36 1008.1
20260830181405 98 250 2.0 9.0 0.00 0.00 0.00 36 1008.2
20260830181130 98 189 2.0 11.0 0.00 0.00 0.00 36 1008.3
20260830180405 98 173 2.0 12.0 0.00 0.00 0.00 37 1008.3
20260830175906 98 188 2.0 12.0 0.00 0.00 0.00 37 1008.4
20260830175405 98 177 1.0 12.0 0.00 0.00 0.00 37 1008.5
20260830174905 98 205 0.0 10.0 0.00 0.00 0.00 37 1008.6
20260830174405 97 173 1.0 11.0 0.00 0.00 0.00 38 1008.7
20260830173905 97 225 2.0 12.0 0.00 0.00 0.00 38 1008.8
20260830173405 97 165 2.0 12.0 0.00 0.00 0.00 38 1008.8
20260830172905 96 155 2.0 12.0 0.00 0.00 0.00 39 1008.9
20260830172405 96 206 2.0 12.0 0.00 0.00 0.00 39 1009.0
20260830172126 96 205 1.0 9.0 0.00 0.00 0.00 40 1009.1
20260830171404 95 258 1.0 8.0 0.00 0.00 0.00 40 1009.1
20260830170907 95 173 1.0 11.0 0.00 0.00 0.00 41 1009.2
20260830170405 95 163 1.0 11.0 0.00 0.00 0.00 41 1009.2
20260830165905 94 157 1.0 12.0 0.00 0.00 0.00 42 1009.3
20260830165404 94 274 2.0 12.0 0.00 0.00 0.00 42 1009.3
20260830164905 93 192 1.0 9.0 0.00 0.00 0.00 42 1009.4
20260830164626 93 161 1.0 13.0 0.00 0.00 0.00 43 1009.5
20260830163905 92 169 1.0 13.0 0.00 0.00 0.00 44 1009.5
20260830163404 92 179 1.0 8.0 0.00 0.00 0.00 44 1009.5
20260830162906 92 187 2.0 9.0 0.00 0.00 0.00 44 1009.5
20260830162405 92 169 1.0 10.0 0.00 0.00 0.00 45 1009.6
20260830161905 91 169 2.0 14.0 0.00 0.00 0.00 45 1009.7
20260830161405 91 179 2.0 14.0 0.00 0.00 0.00 46 1009.6
20260830160906 91 172 2.0 13.0 0.00 0.00 0.00 46 1009.6
20260830160404 90 181 2.0 13.0 0.00 0.00 0.00 45 1009.6
20260830155905 90 175 2.0 14.0 0.00 0.00 0.00 46 1009.7
20260830155404 90 244 2.0 14.0 0.00 0.00 0.00 47 1009.7
20260830154905 89 173 1.0 11.0 0.00 0.00 0.00 47 1009.6
20260830154404 89 204 2.0 15.0 0.00 0.00 0.00 47 1009.5
20260830153905 88 186 4.0 15.0 0.00 0.00 0.00 48 1009.4
20260830153624 88 149 3.0 13.0 0.00 0.00 0.00 48 1009.5
20260830152905 88 167 4.0 14.0 0.00 0.00 0.00 49 1009.4
20260830152405 87 173 5.0 14.0 0.00 0.00 0.00 51 1009.4
20260830151905 86 159 5.0 16.0 0.00 0.00 0.00 50 1009.5
20260830151852 86 178 2.0 16.0 0.00 0.00 0.00 51 1009.6
20260830150905 85 152 1.0 7.0 0.00 0.00 0.00 53 1009.6
20260830150404 84 184 1.0 10.0 0.00 0.00 0.00 54 1009.7
20260830145905 83 188 1.0 10.0 0.00 0.00 0.00 55 1009.6
20260830145405 83 173 2.0 12.0 0.00 0.00 0.00 55 1009.8
20260830144905 82 165 4.0 19.0 0.00 0.00 0.00 56 1009.8
20260830144405 82 186 3.0 19.0 0.00 0.00 0.00 56 1009.8
20260830144132 81 168 2.0 14.0 0.00 0.00 0.00 57 1009.8
20260830143404 81 170 2.0 14.0 0.00 0.00 0.00 57 1009.8
20260830143118 81 173 2.0 9.0 0.00 0.00 0.00 57 1009.8
20260830142358 80 170 4.0 14.0 0.00 0.00 0.00 57 1009.9
20260830141858 80 188 5.0 14.0 0.00 0.00 0.00 57 1009.9
20260830141358 80 182 3.0 12.0 0.00 0.00 0.00 58 1009.9
20260830140858 80 174 3.0 12.0 0.00 0.00 0.00 58 1009.9
20260830140621 79 181 3.0 12.0 0.00 0.00 0.00 59 1009.9
20260830135858 79 169 2.0 12.0 0.00 0.00 0.00 60 1009.9
20260830135358 79 177 1.0 9.0 0.00 0.00 0.00 61 1010.0
20260830134858 78 169 1.0 10.0 0.00 0.00 0.00 61 1010.0
20260830134358 78 169 1.0 10.0 0.00 0.00 0.00 62 1009.9
20260830134121 77 184 1.0 9.0 0.00 0.00 0.00 63 1009.9
20260830133358 77 193 1.0 9.0 0.00 0.00 0.00 63 1009.9
20260830132858 77 171 0.0 8.0 0.00 0.00 0.00 64 1009.9
20260830132359 76 158 0.0 5.0 0.00 0.00 0.00 65 1010.0
20260830131858 76 184 0.0 3.0 0.00 0.00 0.00 66 1009.9
20260830131624 75 178 0.0 9.0 0.00 0.00 0.00 67 1009.8
20260830130852 75 187 0.0 9.0 0.00 0.00 0.00 67 1009.8
20260830130346 75 188 1.0 9.0 0.00 0.00 0.00 68 1009.8
20260830125840 74 193 1.0 9.0 0.00 0.00 0.00 68 1009.7
20260830125341 74 164 0.0 5.0 0.00 0.00 0.00 69 1009.7
20260830125106 74 165 0.0 1.0 0.00 0.00 0.00 69 1009.7
20260830124341 73 165 0.0 2.0 0.00 0.00 0.00 70 1009.7
20260830123839 73 165 0.0 2.0 0.00 0.00 0.00 70 1009.7
20260830123340 73 164 0.0 2.0 0.00 0.00 0.00 70 1009.7
20260830122837 73 163 0.0 2.0 0.00 0.00 0.00 70 1009.7
20260830122335 73 163 0.0 1.0 0.00 0.00 0.00 70 1009.7
20260830121832 73 164 0.0 5.0 0.00 0.00 0.00 70 1009.7
20260830121331 73 164 0.0 5.0 0.00 0.00 0.00 70 1009.7
20260830120831 73 167 0.0 0.0 0.00 0.00 0.00 70 1009.7
20260830120331 73 167 0.0 1.0 0.00 0.00 0.00 70 1009.7
20260830115830 73 167 0.0 1.0 0.00 0.00 0.00 70 1009.7
20260830115331 73 167 0.0 0.0 0.00 0.00 0.00 70 1009.7
20260830114830 73 167 0.0 0.0 0.00 0.00 0.00 70 1009.7
20260830114331 73 167 0.0 0.0 0.00 0.00 0.00 69 1009.6
20260830113830 73 167 0.0 3.0 0.00 0.00 0.00 69 1009.6
20260830113331 74 167 0.0 3.0 0.00 0.00 0.00 69 1009.6
20260830112831 74 167 0.0 0.0 0.00 0.00 0.00 68 1009.7
20260830112557 74 167 0.0 0.0 0.00 0.00 0.00 68 1009.7
20260830111835 74 167 0.0 0.0 0.00 0.00 0.00 68 1009.7
20260830111334 74 167 0.0 0.0 0.00 0.00 0.00 68 1009.7
20260830110831 74 167 0.0 0.0 0.00 0.00 0.00 67 1009.6
20260830110331 74 167 0.0 0.0 0.00 0.00 0.00 67 1009.5
20260830105830 74 167 0.0 0.0 0.00 0.00 0.00 67 1009.6
20260830105331 75 167 0.0 1.0 0.00 0.00 0.00 66 1009.5
20260830104830 75 167 0.0 1.0 0.00 0.00 0.00 66 1009.4
20260830104553 75 170 0.0 1.0 0.00 0.00 0.00 66 1009.3
20260830103830 75 171 0.0 0.0 0.00 0.00 0.00 66 1009.3
20260830103331 75 171 0.0 2.0 0.00 0.00 0.00 65 1009.4
20260830102830 75 171 0.0 5.0 0.00 0.00 0.00 65 1009.4
20260830102330 75 167 0.0 5.0 0.00 0.00 0.00 65 1009.3
20260830101831 75 167 0.0 3.0 0.00 0.00 0.00 65 1009.3
20260830101331 75 166 0.0 0.0 0.00 0.00 0.00 64 1009.3
20260830100830 75 166 0.0 0.0 0.00 0.00 0.00 64 1009.2
20260830100330 76 166 0.0 0.0 0.00 0.00 0.00 64 1009.3
20260830095830 76 167 0.0 1.0 0.00 0.00 0.00 63 1009.2
20260830095331 76 167 0.0 1.0 0.00 0.00 0.00 63 1009.1
20260830094831 76 167 0.0 0.0 0.00 0.00 0.00 63 1009.2
20260830094330 76 166 0.0 0.0 0.00 0.00 0.00 62 1009.1
20260830093824 76 167 0.0 1.0 0.00 0.00 0.00 62 1009.1
20260830093325 76 167 0.0 1.0 0.00 0.00 0.00 62 1009.1
20260830092825 76 165 0.0 1.0 0.00 0.00 0.00 61 1009.0
20260830092325 77 165 0.0 1.0 0.00 0.00 0.00 61 1008.9
20260830092045 77 165 0.0 1.0 0.00 0.00 0.00 61 1008.9
20260830091320 77 165 0.0 1.0 0.00 0.00 0.00 60 1008.9
20260830090821 77 166 0.0 4.0 0.00 0.00 0.00 60 1008.9
20260830090539 77 165 0.0 4.0 0.00 0.00 0.00 60 1008.8
20260830085819 77 168 0.0 4.0 0.00 0.00 0.00 60 1008.8
20260830085316 77 168 0.0 1.0 0.00 0.00 0.00 60 1008.8